EW5206 Weather Reports


Display with metric or nautical units.
time (UTC)temp
F
wind
direction
speed
MPH
gust
MPH
rain 1hr
in
rain 24hr
in
rain mn
in
humidity
%
barometer
mb
20260507040101 60 0.0 0.0 0.00 0.00 0.00 95 1010.0
20260507034558 60 0.0 0.0 0.00 0.00 0.00 95 1010.0
20260507033101 61 0.0 0.0 0.00 0.00 0.00 94 1010.2
20260507031556 61 0.0 0.0 0.00 0.00 0.00 94 1010.9
20260507030056 61 0.0 0.0 0.00 0.00 0.00 94 1011.3
20260507024605 61 0.0 0.0 0.00 0.00 0.00 93 1011.4
20260507023053 61 0.0 0.0 0.00 0.00 0.00 93 1011.0
20260507021553 62 0.0 0.0 0.00 0.00 0.00 92 1010.4
20260507020108 62 0.0 0.0 0.00 0.00 0.00 91 1010.8
20260507014555 63 0.0 0.0 0.00 0.00 0.00 89 1010.5
20260507013056 63 0.0 0.0 0.00 0.00 0.00 87 1010.7
20260507011550 64 0.0 0.0 0.00 0.00 0.00 86 1009.9
20260507010054 65 0.0 0.0 0.00 0.00 0.00 84 1010.1
20260507004600 65 0.0 0.0 0.00 0.00 0.00 83 1010.3
20260507003052 65 0.0 0.0 0.00 0.00 0.00 81 1009.9
20260507001551 65 0.0 0.0 0.00 0.00 0.00 81 1009.5
20260507000050 66 0.0 0.0 0.00 0.00 0.00 80 1009.3
20260506234550 66 0.0 0.0 0.00 0.00 0.00 79 1009.0
20260506233102 66 0.0 0.0 0.00 0.00 0.00 78 1009.0
20260506231554 67 0.0 0.0 0.00 0.00 0.00 77 1009.3
20260506230049 67 0.0 0.0 0.00 0.00 0.00 76 1009.3
20260506224545 67 0.0 0.0 0.00 0.00 0.00 77 1009.0
20260506223047 67 0.0 0.0 0.00 0.00 0.00 77 1009.6
20260506221543 67 0.0 0.0 0.00 0.00 0.00 77 1009.5
20260506220043 67 0.0 0.0 0.00 0.00 0.00 78 1009.2
20260506214544 67 0.0 0.0 0.00 0.00 0.00 81 1009.5
20260506213057 67 0.0 0.0 0.00 0.00 0.00 84 1009.1
20260506211539 67 0.0 0.0 0.00 0.00 0.00 85 1009.0
20260506210038 66 0.0 0.0 0.00 0.00 0.00 84 1009.1
20260506204538 66 0.0 0.0 0.00 0.00 0.00 86 1009.0
20260506203035 66 0.0 0.0 0.00 0.00 0.00 86 1009.2
20260506201534 65 0.0 0.0 0.00 0.00 0.00 87 1009.2
20260506200032 65 0.0 0.0 0.00 0.00 0.00 88 1009.1
20260506194532 65 0.0 0.0 0.00 0.00 0.00 92 1009.2
20260506193029 64 0.0 0.0 0.00 0.00 0.00 94 1009.4
20260506191528 64 0.0 0.0 0.00 0.00 0.00 93 1009.4
20260506190027 64 0.0 0.0 0.00 0.00 0.00 95 1009.3
20260506184541 63 0.0 0.0 0.00 0.00 0.00 95 1009.3
20260506183036 63 0.0 0.0 0.00 0.00 0.00 94 1009.3
20260506181531 63 0.0 0.0 0.00 0.00 0.00 94 1009.3
20260506180027 62 0.0 0.0 0.00 0.00 0.00 94 1009.5
20260506174525 62 0.0 0.0 0.00 0.00 0.00 93 1009.6
20260506173023 62 0.0 0.0 0.00 0.00 0.00 93 1009.5
20260506171521 62 0.0 0.0 0.00 0.00 0.00 91 1010.2
20260506170022 62 0.0 0.0 0.00 0.00 0.00 91 1010.3
20260506164523 62 0.0 0.0 0.00 0.00 0.00 91 1010.7
20260506163020 62 0.0 0.0 0.00 0.00 0.00 91 1010.8
20260506161520 62 0.0 0.0 0.00 0.00 0.00 89 1011.0
20260506160020 62 0.0 0.0 0.00 0.00 0.00 89 1010.8
20260506154518 62 0.0 0.0 0.00 0.00 0.00 91 1010.3
20260506153021 61 0.0 0.0 0.00 0.00 0.00 93 1010.3
20260506151517 60 0.0 0.0 0.00 0.00 0.00 92 1010.2
20260506150016 60 0.0 0.0 0.00 0.00 0.00 92 1010.2
20260506144520 60 0.0 0.0 0.00 0.00 0.00 92 1010.1
20260506143016 60 0.0 0.0 0.00 0.00 0.00 92 1010.1
20260506141514 59 0.0 0.0 0.00 0.00 0.00 93 1010.0
20260506140016 59 0.0 0.0 0.00 0.00 0.00 91 1010.2
20260506134513 59 0.0 0.0 0.00 0.00 0.00 90 1010.0
20260506133012 59 0.0 0.0 0.00 0.00 0.00 89 1010.0
20260506131516 59 0.0 0.0 0.00 0.00 0.00 88 1009.9
20260506130011 59 0.0 0.0 0.00 0.00 0.00 87 1009.6
20260506124510 58 0.0 0.0 0.00 0.00 0.00 87 1009.6
20260506123010 58 0.0 0.0 0.00 0.00 0.00 87 1009.5
20260506121611 58 0.0 0.0 0.00 0.00 0.00 87 1009.3
20260506120016 58 0.0 0.0 0.00 0.00 0.00 86 1009.0
20260506114517 58 0.0 0.0 0.00 0.00 0.00 85 1008.9
20260506113014 59 0.0 0.0 0.00 0.00 0.00 84 1008.6
20260506111502 59 0.0 0.0 0.00 0.00 0.00 83 1008.9
20260506110003 59 0.0 0.0 0.00 0.00 0.00 82 1008.7
20260506104606 59 0.0 0.0 0.00 0.00 0.00 78 1008.7
20260506103059 59 0.0 0.0 0.00 0.00 0.00 77 1008.6
20260506101558 59 0.0 0.0 0.00 0.00 0.00 76 1008.6
20260506100057 59 0.0 0.0 0.00 0.00 0.00 75 1008.5
20260506094555 60 0.0 0.0 0.00 0.00 0.00 74 1008.6
20260506093054 60 0.0 0.0 0.00 0.00 0.00 73 1008.9
20260506091558 60 0.0 0.0 0.00 0.00 0.00 72 1008.8
20260506090058 60 0.0 0.0 0.00 0.00 0.00 71 1009.0
20260506084551 60 0.0 0.0 0.00 0.00 0.00 70 1009.1
20260506083048 60 0.0 0.0 0.00 0.00 0.00 69 1009.2
20260506081544 61 0.0 0.0 0.00 0.00 0.00 68 1009.3
20260506073040 61 0.0 0.0 0.00 0.00 0.00 62 1009.7
20260506071538 61 0.0 0.0 0.00 0.00 0.00 62 1009.4
20260506061532 62 0.0 0.0 0.00 0.00 0.00 60 1009.9
20260506044522 63 0.0 0.0 0.00 0.00 0.00 56 1010.7
20260506043019 63 0.0 0.0 0.00 0.00 0.00 55 1010.9
20260506041516 63 0.0 0.0 0.00 0.00 0.00 55 1010.8